Terminal Aerodrome Forecast
Issued by NWS Blacksburg, VA

Home | Current Version | Previous Version | Text Only | Print | Product List | Glossary On
Versions: 1 2 3 4 5 6 7 8 9 10 11 12 13 14 15 16 17 18 19 20 21 22 23 24 25 26 27 28 29 30 31 32 33 34 35 36 37 38 39 40 41 42 43 44 45 46 47 48 49 50
000
FTUS41 KRNK 242327
TAFLYH
TAF
KLYH 242327Z 2500/2524 19003KT 1/2SM FG OVC002 WS020/21040KT
      TEMPO 2501/2504 4SM -SHRA OVC025
     FM250400 22006KT P6SM BKN035
     FM251100 27010KT P6SM SCT050 BKN100
     FM251800 26007KT P6SM FEW060=

USA.gov is the U.S. government's official web portal to all federal, state and local government web resources and services.